Weather observations for the past three days for
Bremerton, Bremerton National Airport
Imperial (Metric)
Date Time (pdt) Wind (mph) Vis. (mi.) Weather Sky Cond. Temperature (ºF) Relative Humidity Wind Chill (°F) Heat Index (°F) Pressure Precipitation (in)
Air Dwpt 6 hour altimeter (in) sea level (mb) 1 hr 3 hr 6 hr
Max. Min.
21 04:56 SW 7 10.00 Fair CLR 55 55 68 52 100% 30.1 1019.3
21 03:56 SW 5 10.00 Fair CLR 53.1 52 96% 30.06 1018.1
21 02:56 Calm 10.00 Fair CLR 59 57 93% 30.03 1017.0
21 01:56 Calm 10.00 Fair CLR 60.1 57 90% 30.04 1017.2
21 00:56 Calm 10.00 Fair CLR 61 55.9 84% 30.04 1017.2
20 23:56 Calm 10.00 Fair CLR 64.9 55.9 73% 30.04 1017.5
20 22:56 Calm 10.00 Fair CLR 68 55 87.1 68 63% 30.04 1017.4
20 21:56 NE 5 10.00 Fair CLR 71.1 53.1 53% 30.04 1017.3
20 20:56 NE 7 10.00 Fair CLR 73.9 53.1 48% 30.03 1017.1
20 19:56 NE 8 10.00 Fair CLR 80.1 53.1 39% 80 30.04 1017.1
20 18:56 NE 9 10.00 Fair CLR 84 53.1 34% 83 30.04 1017.3
20 17:56 E 9 10.00 Fair CLR 84.9 52 32% 83 30.04 1017.5
20 16:56 NE 13 10.00 Fair CLR 87.1 53.1 87.1 78.1 31% 85 30.06 1017.9
20 15:56 N 8 10.00 Fair CLR 86 52 31% 84 30.08 1018.6
20 14:56 NE 8 G 16 10.00 Fair CLR 84.9 57 39% 84 30.09 1019.1
20 13:56 NE 9 10.00 Fair CLR 84 55.9 38% 83 30.11 1019.8
20 12:56 E 8 10.00 Fair CLR 82.9 53.1 36% 82 30.13 1020.3
20 11:56 E 7 10.00 Fair CLR 80.1 57 45% 80 30.14 1020.7
20 10:56 Vrbl 3 10.00 Fair CLR 79 59 79 52 50% 80 30.15 1021.1
20 09:56 Calm 9.00 Fair CLR 73 57 57% 30.16 1021.6
20 08:56 Calm 10.00 Fair CLR 69.1 57 66% 30.17 1021.8
20 07:56 NE 3 10.00 Fair CLR 64.9 57 76% 30.17 1021.8
20 06:56 NE 3 10.00 Fair CLR 61 57 87% 30.16 1021.5
20 05:56 Calm 10.00 Fair CLR 55.9 55 97% 30.16 1021.5
20 04:56 Calm 10.00 Fair CLR 55 54 66.9 52 96% 30.16 1021.6
20 03:56 Calm 10.00 Fair CLR 55 55 100% 30.17 1021.6
20 02:56 Calm 10.00 Fair CLR 57 55 93% 30.16 1021.4
20 01:56 Calm 10.00 Fair CLR 61 57 87% 30.17 1021.7
20 00:56 N 3 10.00 Fair CLR 62.1 55.9 80% 30.17 1021.6
19 23:56 Calm 10.00 Fair CLR 64.9 57 76% 30.16 1021.5
19 22:56 NE 5 10.00 Fair CLR 66.9 55.9 86 66.9 68% 30.16 1021.5
19 21:56 NE 8 10.00 Fair CLR 69.1 55.9 63% 30.16 1021.3
19 20:56 NE 7 10.00 Fair CLR 73 54 51% 30.14 1020.9
19 19:56 Calm 10.00 Fair CLR 78.1 57.9 50% 79 0 0.0
19 18:56 NE 7 10.00 Fair CLR 80.1 57.9 47% 81 30.14 1020.6
19 17:56 NE 8 10.00 Fair CLR 82.9 55.9 40% 82 30.14 1020.8
19 16:56 Calm 10.00 Fair CLR 84.9 55 86 66.9 36% 84 30.15 1021.2
19 15:56 Vrbl 3 10.00 Fair CLR 82.9 53.1 36% 82 30.17 1021.7
19 14:56 Calm 10.00 Fair CLR 81 53.1 38% 80 30.18 1022.2
19 13:56 NW 5 10.00 Fair CLR 79 55 44% 80 30.19 1022.5
19 12:56 Calm 10.00 Fair CLR 75.9 55.9 50% 78 30.2 1022.8
19 11:56 S 3 10.00 Fair CLR 71.1 57 61% 30.21 1023.1
19 10:56 SW 6 10.00 Fair CLR 66.9 57 66.9 57 71% 30.22 1023.5
19 09:56 SE 6 10.00 Mostly Cloudy BKN012 63 55.9 78% 30.22 1023.6
19 08:56 SW 6 10.00 Overcast OVC010 61 55.9 84% 30.22 1023.4
19 07:56 S 5 10.00 Overcast OVC008 59 55.9 90% 30.2 1022.9
19 06:56 S 6 10.00 Overcast OVC008 57.9 55.9 93% 30.19 1022.4
19 05:56 SW 3 10.00 Overcast OVC008 57.9 55.9 93% 30.18 1021.9
19 04:56 S 6 10.00 Overcast OVC006 57 55.9 60.1 55 96% 30.17 1021.8
19 03:56 S 5 10.00 Overcast OVC006 57 55.9 96% 30.16 1021.4
19 02:56 S 6 10.00 Overcast OVC006 55.9 55.9 100% 30.15 1021.0
19 01:56 S 5 10.00 Fair CLR 55 54 96% 30.14 1020.9
19 00:56 SW 3 10.00 Fair CLR 57.9 55 90% 30.14 1020.8
18 23:56 S 8 10.00 Fair CLR 60.1 55.9 86% 30.13 1020.3
18 22:56 SW 6 10.00 Fair CLR 60.1 54 82.9 60.1 80% 30.12 0.0
18 21:56 S 6 10.00 Fair CLR 64.9 54 68% 30.1 0.0
18 20:56 S 6 10.00 Fair CLR 68 54 61% 30.08 0.0
18 19:56 SW 14 10.00 Fair CLR 73.9 51.1 45% 30.06 0.0
18 18:56 SW 13 G 20 10.00 Fair CLR 78.1 53.1 42% 79 30.05 0.0
18 17:56 SW 16 10.00 Fair CLR 80.1 55 42% 80 30.05 0.0
18 16:56 SW 13 10.00 Fair CLR 82.9 55 84 70 38% 82 30.05 0.0
18 15:56 SW 8 G 18 10.00 Fair CLR 82.9 55.9 40% 82 30.05 0.0
18 14:56 S 9 10.00 Fair CLR 81 59 47% 81 30.06 0.0
18 13:56 Vrbl 7 10.00 Fair CLR 79 57.9 49% 80 30.08 0.0
18 12:56 Vrbl 6 7.00 Fair CLR 73.9 57.9 57% 0 0.0
18 11:56 SW 6 10.00 NULL NULL 72 57.9 61% 30.09 0.0
18 10:56 SW 6 10.00 Fair CLR 66.9 55.9 68% 30.1 0.0
Date Time (pdt) Wind (mph) Vis. (mi.) Weather Sky Cond. Air Dwpt Max. Min. Relative Humidity Wind Chill (°F) Heat Index (°F) altimeter (in) sea level (mb) 1 hr 3 hr 6 hr
6 hour
Temperature (ºF) Pressure Precipitation (in)